sat.trackr.live / text

‹ back to catalog

HAIYANG-1D

NORAD 45721 · 2020-036A

PAYLOAD ACTIVE UNKNOWN

§ Identity

Operator
Country
PRC
Launch date
2020-06-10
Launch site
TAISC
Launch vehicle
Mass (kg)
RCS (m²)

External: N2YO · Heavens-Above · Gunter

§ Orbital elements

Epoch: 2026-05-25T03:49:25.286016Z

Period
100.41 min
Inclination
98.4544°
Eccentricity
0.0001989
Mean motion
14.34165434 rev/d
Perigee alt
776.4 km
Apogee alt
779.3 km
Semi-major
7,156.0 km
B*
1.7615e-4
RAAN
87.3408°
Arg perigee
191.6866°
Mean anomaly
168.4273°
Rev number
31,167

§ Raw data

HAIYANG-1D1 45721U 20036A   26145.15932044  .00000450  00000+0  17615-3 0  99972 45721  98.4544  87.3408 0001989 191.6866 168.4273 14.34165434311673

JSON: /api/v1/satellites/45721 · /tle

For live sub-satellite position, see the globe view (requires WebGL).

§ Visibility from observer

Set your observer location to see the next 7 days of passes ≥ 10°. The values pass through the URL so the page stays shareable.

No JS? Fill the form by hand. The geolocation button needs JavaScript.

§ Radio — SatNOGS DB

ModeDescriptionDownlinkUplink
FM Mode S 2.216 GHz

1 transmitter · refreshed weekly from db.satnogs.org